This demonstration page uses our WeatherBlox Daily Observations layout. Learn more.

Left ArrowRight Arrow

Hourly Observations for June 24, 2017

Temp ( °F °C ) Dew Point ( °F °C ) Humidity (%) Winds ( mph kmh ) Pressure ( in mb ) Visibility ( mi km ) Precip ( " mm )
12:52 am 00:52 Clear 63 17.2 56 13.3 78 78 NNW 7 11 30.05 1018 10 16 0.00 0.00
1:52 am 01:52 Clear 61 16.1 55 12.8 81 81 N 6 9 30.06 1018 10 16 0.00 0.00
2:52 am 02:52 Clear 64 17.8 54 12.2 70 70 NNW 3 6 30.06 1018 10 16 0.00 0.00
3:52 am 03:52 Clear 61 16.1 54 12.2 78 78 NNW 7 11 30.08 1019 10 16 0.00 0.00
4:52 am 04:52 Clear 60 15.6 55 12.8 84 84 NNW 3 6 30.08 1019 10 16 0.00 0.00
5:52 am 05:52 Clear 57 13.9 54 12.2 90 90 Calm 30.10 1019 10 16 0.00 0.00
6:52 am 06:52 Sunny 60 15.6 57 13.9 90 90 Calm 30.12 1020 10 16 0.00 0.00
7:52 am 07:52 Sunny 66 18.9 57 13.9 73 73 N 7 11 30.13 1020 10 16 0.00 0.00
8:52 am 08:52 Sunny 69 20.6 57 13.9 66 66 NNE 5 7 30.15 1021 10 16 0.00 0.00
9:52 am 09:52 Sunny 72 22.2 56 13.3 57 57 N 7 11 30.18 1022 10 16 0.00 0.00
10:52 am 10:52 Sunny 74 23.3 54 12.2 50 50 N 7 11 30.18 1022 10 16 0.00 0.00
11:52 am 11:52 Sunny 74 23.3 51 10.6 45 45 NNW 7 11 30.18 1022 10 16 0.00 0.00
12:52 pm 12:52 Sunny 76 24.4 52 11.1 43 43 NNW 12 19 30.18 1022 10 16 0.00 0.00
1:52 pm 13:52 Sunny 77 25 53 11.7 43 43 NNW 17 28 30.17 1022 10 16 0.00 0.00
2:52 pm 14:52 Sunny 77 25 51 10.6 40 40 N 10 17 30.16 1021 10 16 0.00 0.00
3:52 pm 15:52 Sunny 77 25 51 10.6 40 40 NNW 12 19 30.15 1021 10 16 0.00 0.00
4:52 pm 16:52 Sunny 78 25.6 51 10.6 39 39 NNW 12 19 30.15 1021 10 16 0.00 0.00
5:52 pm 17:52 Sunny 77 25 50 10 39 39 N 6 9 30.14 1021 10 16 0.00 0.00
6:52 pm 18:52 Sunny 76 24.4 48 8.9 37 37 NNW 9 15 30.15 1021 10 16 0.00 0.00
7:52 pm 19:52 Sunny 73 22.8 49 9.4 43 43 N 6 9 30.16 1021 10 16 0.00 0.00
8:52 pm 20:52 Clear 71 21.7 50 10 47 47 NNE 6 9 30.17 1022 10 16 0.00 0.00
9:52 pm 21:52 Clear 65 18.3 55 12.8 70 70 Calm 30.19 1023 10 16 0.00 0.00
10:52 pm 22:52 Clear 63 17.2 54 12.2 73 73 Calm 30.21 1023 10 16 0.00 0.00
11:52 pm 23:52 Clear 62 16.7 54 12.2 75 75 Calm 30.22 1023 10 16 0.00 0.00

Powered by AerisWeather